Home   Weather   London   Past weeks
Flag for United Kingdom

Past Weather in London, England, United Kingdom — Yesterday and Last 2 Weeks

Now
43 °F

Haze.


Feels Like: 37 °F
Forecast: 43 / 52 °F
Wind: 10 mph from East

Location: Northolt

Current Time: Nov 18, 2018 at 8:06:11 am

Latest Report: Nov 18, 2018 at 6:50 am


Visibility: 6 mi

Pressure: 30.33 "Hg

Humidity: 87%

Dew Point: 39 °F

Location of LondonLocation

Past Weather in London — Graph

°F

London Temperature Yesterday

Maximum temperature yesterday: 54 °F (at 1:50 pm)
Minimum temperature yesterday: 43 °F (at 11:50 pm)
Average temperature yesterday: 47 °F

High & Low Weather Summary for the Past Weeks

 TemperatureHumidityPressure
High61 °F (Nov 5, 1:50 pm)100% (Nov 5, 1:50 am)30.33 "Hg (Nov 5, 1:50 am)
Low39 °F (Nov 18, 1:50 am)59% (Nov 3, 1:50 pm)29.27 "Hg (Nov 9, 11:50 pm)
Average51 °F86%29.85 "Hg
* Reported Nov 3 5:50 am — Nov 18 5:50 am, London. Weather by CustomWeather, © 2018

Note: Actual official high and low records may vary slightly from our data, if they occured in-between our weather recording intervals... More about our weather records

Advertising

London Weather History for the Previous 24 Hours

Scroll right to see more
 ConditionsComfort  
Time TempWeatherWind HumidityBarometerVisibility
5:50 am
Sun, Nov 18
43 °FClear.10 mph87%30.33 "HgN/A
4:50 am43 °FClear.9 mph87%30.33 "HgN/A
3:50 am39 °FClear.6 mph93%30.33 "HgN/A
2:50 am39 °FClear.6 mph93%30.33 "Hg6 mi
1:50 am39 °FClear.6 mph93%30.33 "Hg5 mi
12:50 am43 °FClear.8 mph87%30.33 "HgN/A
11:50 pm
Sat, Nov 17
43 °FClear.9 mph87%30.33 "HgN/A
10:50 pm45 °FClear.8 mph87%30.33 "HgN/A
9:50 pm45 °FClear.10 mph87%30.33 "HgN/A
8:50 pm45 °FClear.9 mph87%30.33 "Hg10 mi
7:50 pm45 °FClear.9 mph87%30.33 "Hg10 mi
6:50 pm46 °FClear.13 mph82%30.30 "Hg10 mi
5:50 pm46 °FClear.10 mph82%30.30 "Hg10 mi
4:50 pm48 °FClear.12 mph82%30.30 "Hg10 mi
3:50 pm50 °FPassing clouds.15 mph71%30.30 "HgN/A
2:50 pm52 °FPassing clouds.14 mph67%30.27 "HgN/A
1:50 pm54 °FSunny.15 mph63%30.30 "Hg10 mi
12:50 pm52 °FSunny.12 mph72%30.30 "Hg10 mi
11:50 am52 °FPassing clouds.12 mph72%30.30 "HgN/A
10:50 am50 °FHaze.10 mph71%30.33 "Hg6 mi
9:50 am48 °FHaze.9 mph82%30.33 "Hg5 mi
9:22 am46 °FHaze.12 mph82%30.33 "Hg5 mi
8:50 am46 °FPartly sunny.12 mph82%30.33 "Hg4 mi
Weather by CustomWeather, © 2018

See weather overview